Regional Weather Roundup
Issued by NWS Kansas City/Pleasant Hill, MO

Home | Current Version | Previous Version | Text Only | Print | Product List | Glossary On
Versions: 1 2 3 4 5 6 7 8 9 10 11 12 13 14 15 16 17 18 19 20 21 22 23 24 25 26 27 28 29 30 31 32 33 34 35 36 37 38 39 40 41 42 43 44 45 46 47 48 49 50
000
ASUS43 KEAX 091110
RWREAX

WEATHER ROUNDUP FOR EASTERN KANSAS AND NORTHWEST MISSOURI
NATIONAL WEATHER SERVICE KANSAS CITY/PLEASANT HILL MO
500 AM CST FRI DEC 09 2016

KSZ040-057-103>105-MOZ028-029-037-043-091200-
...KANSAS CITY METROPOLITAN AREA...

CITY           SKY/WX    TMP DP  RH WIND       PRES   REMARKS
K.C. INTL      CLEAR     13   7  77 NW6       30.65S WCI   4
K.C. DOWNTOWN  CLEAR     16   9  74 CALM      30.67F
LEES SUMMIT    CLEAR     15   8  73 N3        30.65F
OLATHE - IXD   CLEAR     12   8  84 NW3       30.65F
OLATHE - OJC   CLEAR     13   8  81 N3        30.64F
LAWRENCE       CLEAR      7   5  91 W5        30.66F WCI  -2

$$

MOZ001>008-011>017-020>025-030>033-038>040-044>046-053-054-091200-
...NORTHERN AND CENTRAL MISSOURI...

CITY           SKY/WX    TMP DP  RH WIND       PRES   REMARKS
ST. JOSEPH     CLOUDY    11   7  84 CALM      30.67S
MOSBY          SUNNY     14  10  85 CALM      30.67S
WARRENSBURG    CLEAR     14  10  85 W3        30.66F
WHITEMAN AFB   CLEAR     16  11  80 NW6       30.65R WCI   7
CLINTON        CLEAR     10   7  85 CALM      30.67S
SEDALIA        CLEAR     15   9  76 W7        30.66R WCI   5
WARSAW         NOT AVBL
CHILLICOTHE      N/A     13   7  77 NW3       30.66S
KIRKSVILLE     CLEAR     10   7  87 W6        30.61S WCI   0

$$

MOZ041-047>049-056>058-063>065-088>090-097-091200-
...EASTERN AND SOUTHERN MISSOURI...

CITY           SKY/WX    TMP DP  RH WIND       PRES   REMARKS
ST. LOUIS INTL CLEAR     19  11  70 NW5       30.60S WCI  12
SPIRIT OF STL  CLEAR     17  11  77 W3        30.63R
COLUMBIA       CLEAR     14   9  80 W7        30.63R WCI   4
JEFFERSON CITY CLEAR     14  10  84 NW3       30.66R
ROLLA          CLEAR     13  10  88 W9        30.60R WCI   1
OSAGE BEACH    CLEAR     15   9  76 NW3       30.66R
SPRINGFIELD    CLEAR     14   8  77 CALM      30.61F
BRANSON        CLEAR     14  10  85 CALM      30.62F
JOPLIN         CLEAR     12   9  87 CALM      30.66S
WEST PLAINS    CLEAR     14   9  80 CALM      30.60S

$$

IAZ060-094-KSZ022-034>040-054-083-096-NEZ052-066-093-091200-
...KANSAS...SOUTHEAST NEBRASKA AND IOWA...

CITY           SKY/WX    TMP DP  RH WIND       PRES   REMARKS
TOPEKA         CLEAR     11   6  81 CALM      30.66F
MANHATTAN      CLOUDY    12   7  80 CALM      30.64F
EMPORIA        CLEAR     13   9  84 CALM      30.63F
CHANUTE        CLEAR     13   9  84 NW3       30.66S
WICHITA        CLOUDY    13   8  81 E3        30.61F
OMAHA          CLEAR      8   2  76 N5        30.63F WCI   0
LINCOLN        CLEAR      5   1  83 CALM      30.63F
FALLS CITY     CLEAR      9   5  84 CALM      30.64F
LAMONI         CLEAR      8   4  83 NW5       30.60S WCI   0
DES MOINES     CLEAR     12   6  77 NW8       30.61R WCI   0

$$




USA.gov is the U.S. government's official web portal to all federal, state and local government web resources and services.